Fort Lewis, WA
on Thursday, November 8, 2012

Thursday
Previous Day Next Day
Daily Summary
 ActualAverage (KOLM)Record (KOLM)
Temperature
Mean Temperature °F 45°F  
Max Temperature 49°F 52°F 62°F (1996)
Min Temperature 29°F 38°F 21°F (1977)
Degree Days
Heating Degree Days 26 20  
Month to date heating degree days 154  
Since 1 July heating degree days 948  
Cooling Degree Days 0 0  
Month to date cooling degree days 0  
Year to date cooling degree days 106  
Moisture
Dew Point 34°F   
Average Humidity 91    
Maximum Humidity 100    
Minimum Humidity 59    
Precipitation
Precipitation 0.00 in 0.27 in 1.17 in (1973)
Month to date precipitation 2.02  
Year to date precipitation 35.93  
Wind
Wind Speed 3 mph   
Max Wind Speed 13 mph   
Max Gust Speed 17 mph   
Visibility 9 miles   
Events     

Key: T is trace of precipitation, MM is missing value
Source: NWS Daily Summary
Time(PST)TemperatureDew PointHumidity Pressure Visibility Wind DirectionWind SpeedGust SpeedPrecipitationEvents Conditions
12:08 AM 35.6°F 35.6°F 100% 29.93 in 10.0 miles SE 2.3 mph - N/A   Clear
12:38 AM 35.6°F 35.6°F 100% 29.92 in 7.0 miles Calm Calm - N/A   Scattered Clouds
12:53 AM 35.6°F 33.8°F 93% 29.92 in 9.0 miles ENE 2.3 mph - N/A   Mostly Cloudy
12:58 AM 34.7°F 34.2°F 98% 29.94 in 10.0 miles East 2.3 mph - N/A   Mostly Cloudy
1:03 AM 35.6°F 33.8°F 93% 29.92 in 9.0 miles SE 2.3 mph - N/A   Mostly Cloudy
1:13 AM 32.0°F 32.0°F 100% 29.92 in 2.5 miles SSE 4.6 mph - N/A   Scattered Clouds
1:18 AM 32.0°F 32.0°F 100% 29.91 in 2.5 miles SE 3.5 mph - N/A   Partly Cloudy
1:23 AM 33.8°F 32.0°F 93% 29.91 in 6.0 miles SE 3.5 mph - N/A   Partly Cloudy
1:28 AM 33.8°F 32.0°F 93% 29.91 in 10.0 miles ESE 2.3 mph - N/A   Partly Cloudy
1:58 AM 33.4°F 32.9°F 98% 29.92 in 10.0 miles SE 1.2 mph - N/A   Scattered Clouds
2:28 AM 33.8°F 33.8°F 100% 29.89 in 4.0 miles NNE 3.5 mph - N/A   Clear
2:33 AM 33.8°F 33.8°F 100% 29.89 in 4.0 miles Calm Calm - N/A   Clear
2:38 AM 33.8°F 32.0°F 93% 29.89 in 5.0 miles Calm Calm - N/A   Clear
2:43 AM 33.8°F 32.0°F 93% 29.89 in 2.5 miles Calm Calm - N/A   Clear
2:48 AM 33.8°F 33.8°F 100% 29.88 in 3.0 miles Calm Calm - N/A   Clear
2:53 AM 33.8°F 33.8°F 100% 29.88 in 10.0 miles Calm Calm - N/A   Clear
2:58 AM 34.7°F 34.3°F 99% 29.90 in 10.0 miles ENE 1.2 mph - N/A   Clear
3:58 AM 31.6°F 31.1°F 98% 29.89 in 10.0 miles East 1.2 mph - N/A   Clear
4:58 AM 31.5°F 30.9°F 98% 29.87 in 10.0 miles SSE 2.3 mph - N/A   Clear
5:58 AM 31.3°F 30.7°F 98% 29.87 in 10.0 miles East 2.3 mph - N/A   Clear
6:58 AM 29.7°F 29.1°F 98% 29.86 in 10.0 miles SE 4.6 mph - N/A   Clear
7:48 AM 32.0°F 32.0°F 100% 29.84 in 10.0 miles Calm Calm - N/A   Mostly Cloudy
7:58 AM 31.5°F 30.9°F 98% 29.86 in 10.0 miles ESE 2.3 mph - N/A   Mostly Cloudy
8:13 AM 32.0°F 32.0°F 100% 29.84 in 10.0 miles SE 1.2 mph - N/A   Overcast
8:18 AM 32.0°F 32.0°F 100% 29.84 in 10.0 miles SE 2.3 mph - N/A   Overcast
8:24 AM 32.0°F 32.0°F 100% 29.84 in 10.0 miles ESE 2.3 mph - N/A   Overcast
8:54 AM 35.6°F 35.6°F 100% 29.83 in 10.0 miles NNE 2.3 mph - N/A   Overcast
8:58 AM 36.0°F 35.6°F 99% 29.85 in 10.0 miles NNE 2.3 mph - N/A   Overcast
9:08 AM 37.4°F 37.4°F 100% 29.83 in 10.0 miles NE 4.6 mph - N/A   Overcast
9:23 AM 37.4°F 37.4°F 100% 29.83 in 10.0 miles NE 2.3 mph - N/A   Overcast
9:38 AM 39.2°F 37.4°F 93% 29.83 in 10.0 miles NE 2.3 mph - N/A   Overcast
9:58 AM 41.4°F 39.2°F 92% 29.84 in 10.0 miles East 1.2 mph - N/A   Mostly Cloudy
10:08 AM 42.8°F 39.2°F 87% 29.82 in 10.0 miles NE 4.6 mph - N/A   Mostly Cloudy
10:18 AM 42.8°F 39.2°F 87% 29.82 in 10.0 miles NNE 6.9 mph - N/A   Scattered Clouds
10:58 AM 45.5°F 38.8°F 78% 29.84 in 10.0 miles North 3.5 mph - N/A   Partly Cloudy
11:43 AM 48.2°F 39.2°F 71% 29.81 in 10.0 miles North 8.1 mph 16.1 mph N/A   Mostly Cloudy
11:56 AM 48.2°F 39.2°F 71% 29.81 in 10.0 miles North 9.2 mph - N/A   Mostly Cloudy
12:02 PM 48.2°F 39.2°F 71% 29.81 in 10.0 miles NNW 10.4 mph - N/A   Scattered Clouds
12:58 PM 48.6°F 36.7°F 64% 29.83 in 10.0 miles NNW 11.5 mph 17.3 mph N/A   Clear
1:58 PM 49.6°F 36.7°F 61% 29.82 in 10.0 miles North 11.5 mph - N/A   Clear
2:58 PM 49.1°F 35.2°F 59% 29.82 in 10.0 miles North 12.7 mph - N/A   Clear
3:58 PM 47.8°F 37.6°F 68% 29.83 in 10.0 miles North 12.7 mph - N/A   Clear
4:58 PM 45.9°F 36.7°F 70% 29.83 in 10.0 miles North 8.1 mph - N/A   Clear
5:58 PM 44.6°F 36.1°F 72% 29.83 in 10.0 miles North 5.8 mph - N/A   Clear
6:58 PM 41.2°F 35.8°F 81% 29.84 in 10.0 miles NE 3.5 mph - N/A   Clear
7:58 PM 36.3°F 34.2°F 92% 29.84 in 10.0 miles East 1.2 mph - N/A   Clear
8:58 PM 34.2°F 32.5°F 94% 29.85 in 10.0 miles East 2.3 mph - N/A   Clear
9:58 PM 33.6°F 32.7°F 96% 29.85 in 10.0 miles SE 4.6 mph - N/A   Clear
10:58 PM 32.4°F 31.3°F 96% 29.86 in 10.0 miles ESE 2.3 mph - N/A   Scattered Clouds
11:58 PM 31.5°F 30.2°F 95% 29.84 in 10.0 miles SE 4.6 mph - N/A   Clear
Moon Phase
Nov. 08 Nov. 13 Nov. 20 Nov. 28 Dec. 06
Sunrise:07:04 AM (PST) Moon Rise:12:43 AM (PST)11/8
Sunset:04:43 PM (PST) Moon Set:01:46 PM (PST)11/8

Copyright © 2014 The Weather Underground, Inc.